GW5800 Weather Reports


Display with metric or nautical units.
time (UTC)temp
F
wind
direction
speed
MPH
gust
MPH
rain 1hr
in
rain 24hr
in
rain mn
in
humidity
%
barometer
mb
20260510065752 53 33 1.0 2.0 0.00 0.47 0.47 97 1010.1
20260510065249 53 47 0.0 1.0 0.00 0.47 0.47 97 1010.1
20260510064746 54 38 0.0 0.0 0.00 0.47 0.47 97 1010.0
20260510064244 54 33 0.0 1.0 0.00 0.47 0.47 97 1010.0
20260510063739 54 118 0.0 1.0 0.00 0.47 0.47 97 1010.0
20260510063236 54 129 0.0 1.0 0.00 0.47 0.47 97 1010.1
20260510062733 54 141 2.0 2.0 0.00 0.47 0.47 97 1010.1
20260510062229 54 129 0.0 2.0 0.00 0.47 0.47 97 1009.9
20260510061724 54 103 1.0 2.0 0.00 0.47 0.47 97 1010.1
20260510061222 54 141 0.0 2.0 0.00 0.47 0.47 97 1010.4
20260510060718 54 138 3.0 3.0 0.00 0.47 0.47 97 1010.0
20260510060214 54 235 0.0 1.0 0.00 0.47 0.47 97 1010.0
20260510055711 54 144 0.0 0.0 0.00 0.47 0.47 97 1009.9
20260510055209 54 2 0.0 3.0 0.00 0.47 0.47 97 1010.1
20260510054704 54 26 3.0 3.0 0.00 0.47 0.47 97 1010.1
20260510054200 54 10 5.0 8.0 0.00 0.47 0.47 97 1010.1
20260510053700 54 348 5.0 5.0 0.00 0.47 0.47 97 1009.8
20260510053156 54 162 1.0 2.0 0.00 0.47 0.47 97 1009.0
20260510052652 54 157 0.0 2.0 0.00 0.47 0.47 97 1008.9
20260510052148 54 133 1.0 2.0 0.00 0.47 0.47 96 1008.7
20260510051644 54 157 2.0 2.0 0.00 0.47 0.47 96 1008.7
20260510051141 54 182 2.0 2.0 0.00 0.47 0.47 96 1008.7
20260510050638 54 164 2.0 4.0 0.00 0.47 0.47 96 1008.6
20260510050136 54 188 2.0 3.0 0.00 0.47 0.47 95 1008.5
20260510045632 54 193 2.0 3.0 0.00 0.47 0.47 95 1008.5
20260510045129 54 192 3.0 4.0 0.00 0.47 0.47 95 1008.6
20260510044625 54 191 3.0 3.0 0.02 0.47 0.47 95 1008.5
20260510044122 55 167 2.0 2.0 0.00 0.47 0.47 95 1008.5
20260510043618 55 190 3.0 3.0 0.00 0.47 0.47 95 1008.3
20260510043115 55 190 2.0 2.0 0.00 0.47 0.47 95 1008.2
20260510042613 55 130 3.0 4.0 0.02 0.47 0.47 96 1008.6
20260510042108 55 175 1.0 5.0 0.07 0.47 0.47 97 1008.9
20260510041605 55 184 5.0 5.0 0.07 0.47 0.47 97 1008.9
20260510041103 55 200 2.0 4.0 0.05 0.46 0.46 97 1008.9
20260510040559 55 207 4.0 5.0 0.17 0.45 0.45 98 1008.8
20260510040055 54 179 3.0 8.0 0.12 0.44 0.44 98 1009.2
20260510035552 54 224 2.0 4.0 0.02 0.42 0.42 98 1009.4
20260510035051 54 175 4.0 4.0 0.00 0.42 0.42 98 1009.1
20260510034550 54 187 3.0 4.0 0.00 0.42 0.42 98 1008.8
20260510034047 54 206 0.0 2.0 0.00 0.42 0.42 98 1008.6
20260510033543 54 169 0.0 2.0 0.00 0.42 0.42 98 1008.7
20260510033041 54 170 2.0 2.0 0.00 0.42 0.42 98 1008.5
20260510032537 54 177 2.0 3.0 0.00 0.42 0.42 98 1008.1
20260510032032 54 97 2.0 2.0 0.02 0.42 0.42 98 1008.2
20260510031527 54 46 1.0 2.0 0.07 0.42 0.42 98 1008.4
20260510031023 54 124 1.0 2.0 0.09 0.42 0.42 98 1008.6
20260510030519 54 6 2.0 4.0 0.17 0.41 0.41 98 1009.3
20260510030017 54 262 2.0 8.0 0.17 0.40 0.40 98 1009.7
20260510025513 54 251 4.0 4.0 0.07 0.38 0.38 98 1009.3
20260510025011 54 249 2.0 3.0 0.00 0.37 0.37 98 1008.9
20260510024508 54 72 0.0 2.0 0.00 0.37 0.37 98 1008.2
20260510024004 53 156 2.0 2.0 0.00 0.37 0.37 98 1008.4
20260510023500 53 131 0.0 2.0 0.00 0.37 0.37 98 1008.4
20260510022957 53 186 0.0 0.0 0.00 0.37 0.37 97 1008.3
20260510022456 53 224 0.0 0.0 0.00 0.37 0.37 97 1008.3
20260510021955 53 211 1.0 1.0 0.00 0.37 0.37 97 1008.3
20260510021453 53 136 0.0 1.0 0.00 0.37 0.37 97 1008.2
20260510020951 53 147 0.0 1.0 0.00 0.37 0.37 97 1008.2
20260510020450 54 145 0.0 2.0 0.00 0.37 0.37 97 1008.4
20260510015946 54 150 1.0 2.0 0.00 0.37 0.37 97 1008.4
20260510015442 54 137 0.0 2.0 0.00 0.37 0.37 97 1008.5
20260510014937 54 32 0.0 1.0 0.00 0.37 0.37 96 1008.5
20260510014436 54 117 1.0 2.0 0.00 0.37 0.37 97 1008.2
20260510013932 54 73 1.0 2.0 0.00 0.37 0.37 96 1008.4
20260510013426 54 65 1.0 1.0 0.00 0.37 0.37 96 1008.3
20260510012922 54 89 0.0 2.0 0.00 0.37 0.37 96 1008.2
20260510012417 54 109 1.0 2.0 0.00 0.37 0.37 96 1008.3
20260510011912 55 107 0.0 0.0 0.00 0.37 0.37 96 1007.9
20260510011408 55 117 0.0 2.0 0.00 0.37 0.37 96 1007.9
20260510010904 55 145 1.0 3.0 0.00 0.37 0.37 96 1007.9
20260510010401 55 128 0.0 2.0 0.00 0.37 0.37 96 1007.5
20260510005858 55 119 0.0 2.0 0.00 0.37 0.37 95 1007.5
20260510005354 55 113 0.0 1.0 0.00 0.37 0.37 95 1007.5
20260510004852 55 103 0.0 0.0 0.00 0.37 0.37 95 1007.7
20260510004349 55 130 0.0 1.0 0.00 0.37 0.37 95 1007.5
20260510003847 55 135 0.0 2.0 0.00 0.37 0.37 95 1007.4
20260510003343 55 235 0.0 4.0 0.02 0.37 0.37 95 1007.5
20260510002842 55 181 2.0 2.0 0.02 0.37 0.37 96 1007.7
20260510002339 55 186 1.0 2.0 0.00 0.37 0.37 96 1007.7
20260510001836 55 188 0.0 2.0 0.00 0.37 0.37 95 1007.7
20260510001334 55 167 2.0 2.0 0.05 0.37 0.37 95 1007.7
20260510000830 55 243 0.0 2.0 0.07 0.36 0.36 95 1007.7
20260510000328 55 343 0.0 3.0 0.12 0.36 0.36 94 1007.7
20260509235824 55 229 1.0 2.0 0.31 0.35 0.35 94 1007.8
20260509235321 55 7 1.0 4.0 0.64 0.34 0.34 93 1008.1
20260509234817 55 320 1.0 4.0 0.57 0.29 0.29 92 1008.0
20260509234314 55 342 2.0 4.0 0.80 0.23 0.23 91 1007.8
20260509233812 55 352 2.0 8.0 1.13 0.20 0.20 87 1007.2
20260509233309 58 48 4.0 9.0 0.45 0.08 0.08 81 1007.1
20260509232805 63 308 3.0 11.0 0.00 0.00 0.00 68 1007.2
20260509232306 66 5 2.0 3.0 0.00 0.00 0.00 59 1005.8
20260509231759 67 178 3.0 6.0 0.00 0.00 0.00 56 1005.0
20260509231256 67 169 4.0 8.0 0.00 0.00 0.00 55 1005.2
20260509230754 67 168 2.0 4.0 0.00 0.00 0.00 56 1005.4
20260509230250 67 163 4.0 4.0 0.00 0.00 0.00 56 1005.3
20260509225745 68 238 2.0 16.0 0.00 0.00 0.00 54 1005.5
20260509225242 68 303 3.0 4.0 0.00 0.00 0.00 54 1005.2
20260509224737 68 155 4.0 7.0 0.00 0.00 0.00 53 1005.2
20260509224235 68 182 1.0 4.0 0.00 0.00 0.00 55 1005.1
20260509223732 68 186 2.0 3.0 0.00 0.00 0.00 53 1005.2
20260509223229 68 272 3.0 9.0 0.00 0.00 0.00 53 1004.9
20260509222725 69 200 5.0 10.0 0.00 0.00 0.00 51 1005.0
20260509222221 69 180 2.0 2.0 0.00 0.00 0.00 52 1005.1
20260509221716 69 217 3.0 8.0 0.00 0.00 0.00 53 1004.9
20260509221213 70 259 2.0 5.0 0.00 0.00 0.00 49 1005.0
20260509220709 70 186 2.0 5.0 0.00 0.00 0.00 48 1005.0
20260509220206 71 302 3.0 6.0 0.00 0.00 0.00 48 1004.9
20260509215701 71 212 4.0 8.0 0.00 0.00 0.00 47 1005.0
20260509215158 70 200 4.0 6.0 0.00 0.00 0.00 48 1004.8
20260509214655 70 202 7.0 11.0 0.00 0.00 0.00 50 1004.8
20260509214152 71 207 3.0 6.0 0.00 0.00 0.00 50 1004.7
20260509213649 71 139 7.0 11.0 0.00 0.00 0.00 51 1004.9
20260509213144 71 189 3.0 5.0 0.00 0.00 0.00 51 1004.9
20260509212642 70 201 4.0 11.0 0.00 0.00 0.00 50 1005.1
20260509212139 71 284 7.0 9.0 0.00 0.00 0.00 51 1005.2
20260509211635 70 120 4.0 7.0 0.00 0.00 0.00 50 1005.2
20260509211132 71 230 4.0 9.0 0.00 0.00 0.00 52 1005.4
20260509210629 71 177 3.0 9.0 0.00 0.00 0.00 50 1005.2
20260509210126 70 68 1.0 7.0 0.00 0.00 0.00 52 1005.3
20260509205620 71 140 4.0 5.0 0.00 0.00 0.00 52 1005.5
20260509205115 70 265 2.0 6.0 0.00 0.00 0.00 54 1005.4
20260509204611 69 155 9.0 12.0 0.00 0.00 0.00 52 1005.5
20260509204108 69 215 3.0 8.0 0.00 0.00 0.00 54 1006.0
20260509203604 70 169 5.0 9.0 0.00 0.00 0.00 55 1005.7
20260509203103 69 132 5.0 10.0 0.00 0.00 0.00 52 1005.6
20260509202602 69 275 5.0 7.0 0.00 0.00 0.00 53 1005.6
20260509202059 69 255 3.0 5.0 0.00 0.00 0.00 52 1005.9
20260509201558 69 264 4.0 7.0 0.00 0.00 0.00 53 1005.7
20260509201057 69 236 5.0 11.0 0.00 0.00 0.00 53 1005.8
20260509200556 69 152 4.0 6.0 0.00 0.00 0.00 54 1005.9
20260509200053 69 194 4.0 5.0 0.00 0.00 0.00 55 1006.0
20260509195548 68 189 4.0 10.0 0.00 0.00 0.00 55 1006.0
20260509195043 68 149 4.0 13.0 0.00 0.00 0.00 54 1006.3
20260509194538 68 232 6.0 7.0 0.00 0.00 0.00 56 1006.4
20260509194036 67 112 2.0 8.0 0.00 0.00 0.00 58 1006.7
20260509193536 68 149 4.0 11.0 0.00 0.00 0.00 56 1006.6
20260509193033 67 212 4.0 7.0 0.00 0.00 0.00 56 1006.7
20260509192530 68 188 2.0 8.0 0.00 0.00 0.00 53 1006.8
20260509192025 67 168 5.0 15.0 0.00 0.00 0.00 55 1006.7
20260509191519 68 289 5.0 9.0 0.00 0.00 0.00 54 1006.8
20260509191015 67 34 3.0 11.0 0.00 0.00 0.00 55 1007.0
20260509190513 67 149 6.0 10.0 0.00 0.00 0.00 55 1006.8
20260509190010 67 180 4.0 11.0 0.00 0.00 0.00 57 1006.8
20260509185507 67 164 5.0 6.0 0.00 0.00 0.00 60 1006.9
20260509185004 68 161 4.0 7.0 0.00 0.00 0.00 57 1007.2
20260509184503 68 228 4.0 6.0 0.00 0.00 0.00 61 1006.9
20260509183958 67 136 6.0 11.0 0.00 0.00 0.00 57 1007.0
20260509183452 67 190 8.0 12.0 0.00 0.00 0.00 58 1007.1
20260509182949 67 124 6.0 7.0 0.00 0.00 0.00 57 1006.9
20260509182445 67 271 2.0 4.0 0.00 0.00 0.00 58 1007.1
20260509181943 67 259 4.0 6.0 0.00 0.00 0.00 61 1007.2
20260509181441 66 169 2.0 9.0 0.00 0.00 0.00 61 1007.2
20260509180939 67 211 4.0 6.0 0.00 0.00 0.00 61 1007.4
20260509180434 67 282 3.0 8.0 0.00 0.00 0.00 59 1007.1
20260509175931 66 163 6.0 8.0 0.00 0.00 0.00 58 1007.1
20260509175427 65 210 4.0 11.0 0.00 0.00 0.00 63 1007.3
20260509174923 66 271 5.0 6.0 0.00 0.00 0.00 60 1007.1
20260509174419 66 161 7.0 10.0 0.00 0.00 0.00 60 1007.2
20260509173916 66 305 2.0 8.0 0.00 0.00 0.00 62 1007.1
20260509173415 66 218 4.0 10.0 0.00 0.00 0.00 59 1007.0
20260509172912 66 157 1.0 4.0 0.00 0.00 0.00 64 1007.0
20260509172409 65 249 3.0 6.0 0.00 0.00 0.00 68 1007.1
20260509171904 65 230 3.0 7.0 0.00 0.00 0.00 64 1007.2
20260509171400 65 59 2.0 5.0 0.00 0.00 0.00 67 1007.1
20260509170857 64 191 3.0 6.0 0.00 0.00 0.00 65 1007.2
20260509170353 63 223 0.0 6.0 0.00 0.00 0.00 69 1007.2
20260509165848 62 158 4.0 7.0 0.00 0.00 0.00 70 1007.3
20260509165342 63 128 3.0 6.0 0.00 0.00 0.00 69 1007.2
20260509164839 63 206 3.0 6.0 0.00 0.00 0.00 68 1007.5
20260509164335 63 183 2.0 8.0 0.00 0.00 0.00 68 1007.8
20260509163831 63 252 2.0 2.0 0.00 0.00 0.00 69 1007.4
20260509163328 64 138 4.0 8.0 0.00 0.00 0.00 68 1007.5
20260509162828 63 240 5.0 5.0 0.00 0.00 0.00 74 1007.8
20260509162325 62 250 3.0 6.0 0.00 0.00 0.00 73 1007.9
20260509161822 62 155 7.0 13.0 0.00 0.00 0.00 75 1008.0
20260509161319 62 268 2.0 5.0 0.00 0.00 0.00 76 1007.9
20260509160814 62 159 6.0 8.0 0.00 0.00 0.00 74 1008.0
20260509160310 62 284 2.0 7.0 0.00 0.00 0.00 78 1007.9
20260509155806 62 262 4.0 4.0 0.00 0.00 0.00 81 1007.9
20260509155306 60 141 4.0 4.0 0.00 0.00 0.00 82 1007.9
20260509154758 61 199 4.0 4.0 0.00 0.00 0.00 83 1007.7
20260509154256 60 209 3.0 4.0 0.00 0.00 0.00 82 1008.1
20260509153753 60 287 0.0 6.0 0.00 0.00 0.00 85 1007.7
20260509153248 59 131 3.0 7.0 0.00 0.00 0.00 84 1007.8
20260509152745 58 258 2.0 5.0 0.00 0.00 0.00 86 1008.1
20260509152242 58 147 0.0 3.0 0.00 0.00 0.00 88 1007.8
20260509151739 58 275 2.0 2.0 0.00 0.00 0.00 88 1008.0
20260509151235 58 273 4.0 11.0 0.00 0.00 0.00 87 1008.0
20260509150734 58 258 2.0 4.0 0.00 0.00 0.00 88 1008.0
20260509150232 58 142 4.0 5.0 0.00 0.00 0.00 91 1007.9
20260509145728 57 137 1.0 3.0 0.00 0.00 0.00 93 1008.0
20260509145222 56 127 3.0 4.0 0.00 0.00 0.00 94 1008.0
20260509144719 56 127 2.0 4.0 0.00 0.00 0.00 95 1008.1
20260509144216 55 124 0.0 2.0 0.00 0.00 0.00 95 1007.9
20260509143714 55 199 0.0 5.0 0.00 0.00 0.00 96 1007.8
20260509143211 55 204 0.0 2.0 0.00 0.00 0.00 96 1007.9
20260509142706 55 134 2.0 4.0 0.00 0.00 0.00 97 1008.0
20260509142203 54 215 2.0 2.0 0.00 0.00 0.00 97 1007.9
20260509141659 54 288 3.0 3.0 0.00 0.00 0.00 98 1007.9
20260509141156 54 118 2.0 3.0 0.00 0.00 0.00 98 1007.7
20260509140652 54 111 0.0 2.0 0.00 0.00 0.00 98 1007.9
20260509140150 54 159 0.0 1.0 0.00 0.00 0.00 98 1007.9
20260509135647 54 119 0.0 2.0 0.00 0.00 0.00 99 1007.8
20260509135146 53 129 4.0 4.0 0.00 0.00 0.00 99 1008.0
20260509134641 53 140 2.0 4.0 0.00 0.00 0.00 99 1008.0
20260509134139 53 131 0.0 2.0 0.00 0.00 0.00 99 1007.9
20260509133636 53 130 0.0 1.0 0.00 0.00 0.00 99 1007.8
20260509133133 53 150 1.0 2.0 0.00 0.00 0.00 99 1008.0
20260509132631 53 83 1.0 3.0 0.00 0.00 0.00 99 1008.0
20260509132130 53 137 1.0 5.0 0.00 0.00 0.00 99 1008.0
20260509131625 53 126 2.0 2.0 0.00 0.00 0.00 99 1008.1
20260509131123 53 149 4.0 4.0 0.00 0.00 0.00 99 1008.2
20260509130618 53 133 2.0 3.0 0.00 0.00 0.00 99 1008.1
20260509130115 52 160 2.0 2.0 0.00 0.00 0.00 99 1008.1
20260509125611 52 106 2.0 3.0 0.00 0.00 0.00 99 1008.1
20260509125108 52 118 2.0 3.0 0.00 0.00 0.00 99 1008.1
20260509124605 52 140 1.0 2.0 0.00 0.00 0.00 99 1008.2
20260509124102 52 62 0.0 3.0 0.00 0.00 0.00 99 1008.1
20260509123600 52 112 3.0 3.0 0.00 0.00 0.00 99 1008.3
20260509123056 52 84 1.0 2.0 0.00 0.00 0.00 99 1008.3
20260509122552 52 149 2.0 4.0 0.00 0.00 0.00 99 1008.3
20260509122050 52 146 1.0 3.0 0.02 0.00 0.00 99 1008.4
20260509121546 52 99 2.0 2.0 0.02 0.00 0.00 99 1008.3
20260509121048 51 75 2.0 2.0 0.00 0.00 0.00 99 1008.2
20260509120542 51 130 3.0 4.0 0.00 0.00 0.00 99 1008.3
20260509120040 51 120 2.0 4.0 0.00 0.63 0.63 99 1008.4
20260509115536 51 149 2.0 4.0 0.00 0.63 0.63 99 1008.4
20260509115034 51 136 3.0 3.0 0.00 0.63 0.63 99 1008.3
20260509114532 51 125 2.0 2.0 0.00 0.63 0.63 99 1008.4
20260509114031 51 137 1.0 2.0 0.00 0.63 0.63 99 1008.4
20260509113529 51 143 1.0 2.0 0.00 0.63 0.63 99 1008.5
20260509113026 51 164 0.0 3.0 0.00 0.63 0.63 99 1008.4
20260509112522 51 141 1.0 3.0 0.00 0.63 0.63 99 1008.5
20260509112019 51 126 2.0 3.0 0.00 0.63 0.63 99 1008.2
20260509111517 51 138 1.0 4.0 0.00 0.63 0.63 99 1008.4
20260509111014 51 139 3.0 4.0 0.00 0.63 0.63 99 1008.1
20260509110510 51 165 2.0 2.0 0.00 0.63 0.63 99 1008.3
20260509110007 51 134 3.0 3.0 0.00 0.63 0.63 99 1008.1
20260509105506 51 136 4.0 4.0 0.00 0.63 0.63 99 1008.0
20260509105003 51 117 2.0 4.0 0.00 0.63 0.63 99 1008.1
20260509104459 50 191 1.0 3.0 0.00 0.63 0.63 99 1008.0
20260509103957 50 102 2.0 3.0 0.00 0.63 0.63 99 1008.2
20260509103454 50 118 2.0 3.0 0.00 0.63 0.63 99 1008.2
20260509102952 50 127 2.0 4.0 0.00 0.63 0.63 99 1008.1
20260509102449 50 97 2.0 3.0 0.00 0.63 0.63 99 1008.3
20260509101945 50 97 0.0 2.0 0.00 0.63 0.63 99 1008.3
20260509101442 50 134 2.0 4.0 0.02 0.63 0.63 99 1008.1
20260509100939 50 123 2.0 4.0 0.02 0.63 0.63 99 1008.1
20260509100437 50 141 2.0 2.0 0.02 0.63 0.63 99 1008.3
20260509095933 50 143 2.0 2.0 0.05 0.63 0.63 99 1008.3
20260509095430 50 105 2.0 3.0 0.02 0.62 0.62 99 1008.1
20260509094927 50 128 3.0 4.0 0.05 0.62 0.62 99 1008.3
20260509094424 50 112 2.0 3.0 0.02 0.62 0.62 99 1008.3
20260509093922 50 113 3.0 5.0 0.02 0.61 0.61 99 1008.4
20260509093419 50 142 2.0 4.0 0.00 0.61 0.61 99 1008.3
20260509092917 50 142 3.0 4.0 0.00 0.61 0.61 99 1008.4
20260509092414 50 144 2.0 6.0 0.00 0.61 0.61 99 1008.4
20260509091913 50 145 2.0 4.0 0.00 0.61 0.61 99 1008.5
20260509091409 50 139 4.0 5.0 0.00 0.61 0.61 99 1008.5
20260509090906 50 117 4.0 4.0 0.00 0.61 0.61 99 1008.6
20260509090403 50 161 4.0 4.0 0.00 0.61 0.61 99 1008.7
20260509085901 50 130 3.0 4.0 0.00 0.61 0.61 99 1008.7
20260509085358 50 123 2.0 3.0 0.02 0.61 0.61 99 1008.7
20260509084854 50 124 3.0 4.0 0.02 0.61 0.61 99 1008.8
20260509084351 50 116 2.0 3.0 0.05 0.61 0.61 99 1008.8
20260509083849 50 112 3.0 4.0 0.09 0.61 0.61 99 1008.8
20260509083345 50 142 2.0 4.0 0.07 0.60 0.60 99 1008.9
20260509082842 50 116 2.0 4.0 0.07 0.59 0.59 99 1008.9
20260509082339 50 128 3.0 6.0 0.07 0.59 0.59 99 1008.9
20260509081837 50 163 2.0 4.0 0.02 0.57 0.57 99 1008.9
20260509081333 50 146 3.0 4.0 0.02 0.57 0.57 99 1008.8
20260509080831 50 133 4.0 4.0 0.02 0.57 0.57 99 1009.0
20260509080329 50 124 4.0 4.0 0.05 0.57 0.57 99 1009.0
20260509075827 50 149 2.0 4.0 0.07 0.57 0.57 99 1009.1
20260509075324 50 140 3.0 4.0 0.09 0.56 0.56 98 1009.0
20260509074821 50 140 3.0 5.0 0.07 0.56 0.56 98 1009.2
20260509074319 50 127 3.0 4.0 0.07 0.55 0.55 98 1008.9
20260509073815 50 144 4.0 5.0 0.05 0.54 0.54 98 1009.1
20260509073311 50 66 0.0 2.0 0.05 0.54 0.54 98 1009.0
20260509072808 49 125 1.0 4.0 0.09 0.54 0.54 98 1009.0
20260509072306 49 114 2.0 5.0 0.07 0.53 0.53 98 1009.1
20260509071801 49 106 2.0 6.0 0.07 0.52 0.52 98 1009.1
20260509071258 50 111 2.0 4.0 0.09 0.51 0.51 98 1009.1
20260509070755 49 120 2.0 4.0 0.12 0.51 0.51 98 1009.3
20260509070251 49 145 2.0 3.0 0.09 0.50 0.50 98 1009.2